OEWSP LSZR-LOWS

Flight info

Callsign OEWSP
Flight time 0h 31m
Altitude 27000
Route KPT L856 TRAUN TRAUN2R
Aircraft LJ35/M-SDFGILRWY/SB1

Departure

Time 2026-04-23 15:20
Airport Sankt Gallen Altenrhein Airport (LSZR)

Arrival

Time 2026-04-23 15:52
Airport Salzburg Airport (LOWS)
Time Latitude Longitude Altitude Speed Heading
2026-04-23 15:12 47.48724 9.55208 1309 ft 0 kts 12°
2026-04-23 15:17 47.48734 9.55218 1309 ft 5 kts 65°
2026-04-23 15:17 47.48707 9.55252 1309 ft 8 kts 189°
2026-04-23 15:18 47.48660 9.55274 1309 ft 9 kts 110°
2026-04-23 15:18 47.48619 9.55332 1309 ft 9 kts 187°
2026-04-23 15:18 47.48589 9.55262 1309 ft 11 kts 278°
2026-04-23 15:18 47.48601 9.55152 1309 ft 13 kts 279°
2026-04-23 15:19 47.48614 9.55018 1309 ft 8 kts 268°
2026-04-23 15:19 47.48609 9.54949 1309 ft 6 kts 338°
2026-04-23 15:19 47.48621 9.54965 1309 ft 0 kts 97°
2026-04-23 15:19 47.48619 9.54982 1309 ft 11 kts 99°
2026-04-23 15:20 47.48567 9.55468 1311 ft 98 kts 98°
2026-04-23 15:20 47.48417 9.56932 1499 ft 172 kts 98°
2026-04-23 15:20 47.48287 9.58739 2568 ft 166 kts 85°
2026-04-23 15:20 47.48735 9.60448 3147 ft 206 kts 35°
2026-04-23 15:21 47.50187 9.61007 4281 ft 238 kts
2026-04-23 15:21 47.52080 9.61292 4488 ft 308 kts
2026-04-23 15:21 47.54275 9.61574 5591 ft 334 kts
2026-04-23 15:21 47.55833 9.63145 8303 ft 161 kts 58°
2026-04-23 15:22 47.56222 9.64954 10230 ft 247 kts 75°
2026-04-23 15:22 47.56776 9.67938 10229 ft 324 kts 70°
2026-04-23 15:22 47.57568 9.71035 11946 ft 294 kts 60°
2026-04-23 15:22 47.58627 9.73311 14720 ft 274 kts 52°
2026-04-23 15:23 47.59822 9.75675 15551 ft 301 kts 52°
2026-04-23 15:23 47.61111 9.78217 16723 ft 307 kts 52°
2026-04-23 15:23 47.62398 9.80729 18264 ft 305 kts 52°
2026-04-23 15:23 47.63670 9.83231 19516 ft 312 kts 53°
2026-04-23 15:24 47.64892 9.86031 20103 ft 337 kts 60°
2026-04-23 15:24 47.65808 9.89195 21240 ft 335 kts 69°
2026-04-23 15:24 47.66394 9.92250 21587 ft 344 kts 74°
2026-04-23 15:24 47.66924 9.95710 22132 ft 346 kts 75°
2026-04-23 15:25 47.67524 9.99168 22646 ft 348 kts 72°
2026-04-23 15:25 47.68251 10.02595 23174 ft 350 kts 70°
2026-04-23 15:25 47.68974 10.06054 23695 ft 353 kts 72°
2026-04-23 15:25 47.69642 10.09552 24148 ft 355 kts 72°
2026-04-23 15:26 47.70309 10.13083 24603 ft 356 kts 72°
2026-04-23 15:26 47.71001 10.16601 25059 ft 357 kts 72°
2026-04-23 15:26 47.71702 10.20137 25503 ft 358 kts 72°
2026-04-23 15:26 47.72366 10.23550 25922 ft 360 kts 72°
2026-04-23 15:27 47.73007 10.26875 26343 ft 361 kts 72°
2026-04-23 15:27 47.73700 10.30454 26779 ft 362 kts 72°
2026-04-23 15:27 47.74397 10.34048 27193 ft 363 kts 72°
2026-04-23 15:27 47.74915 10.37766 27286 ft 375 kts 78°
2026-04-23 15:28 47.75324 10.41630 27292 ft 384 kts 79°
2026-04-23 15:28 47.75758 10.45580 27292 ft 393 kts 78°
2026-04-23 15:28 47.76222 10.49615 27293 ft 399 kts 78°
2026-04-23 15:28 47.76684 10.53701 27296 ft 405 kts 78°
2026-04-23 15:29 47.77137 10.57839 27297 ft 409 kts 78°
2026-04-23 15:29 47.77597 10.62023 27298 ft 413 kts 78°
2026-04-23 15:29 47.78063 10.66232 27295 ft 415 kts 78°
2026-04-23 15:29 47.78530 10.70468 27300 ft 417 kts 78°
2026-04-23 15:30 47.78996 10.74723 27304 ft 419 kts 78°
2026-04-23 15:30 47.79460 10.78991 27300 ft 420 kts 78°
2026-04-23 15:30 47.79927 10.83281 27303 ft 421 kts 78°
2026-04-23 15:30 47.80392 10.87566 27295 ft 421 kts 78°
2026-04-23 15:31 47.80856 10.91866 27304 ft 422 kts 78°
2026-04-23 15:31 47.81318 10.96164 27302 ft 422 kts 78°
2026-04-23 15:31 47.81779 11.00467 27301 ft 422 kts 78°
2026-04-23 15:31 47.82239 11.04770 27297 ft 422 kts 78°
2026-04-23 15:32 47.82696 11.09070 27294 ft 422 kts 78°
2026-04-23 15:32 47.83151 11.13377 27297 ft 422 kts 78°
2026-04-23 15:32 47.83601 11.17684 27109 ft 425 kts 78°
2026-04-23 15:32 47.84054 11.22007 26412 ft 420 kts 78°
2026-04-23 15:33 47.84494 11.26262 25718 ft 414 kts 78°
2026-04-23 15:33 47.84927 11.30455 25047 ft 409 kts 78°
2026-04-23 15:33 47.85357 11.34602 24395 ft 404 kts 78°
2026-04-23 15:33 47.85781 11.38716 23738 ft 401 kts 78°
2026-04-23 15:34 47.86199 11.42797 22978 ft 399 kts 78°
2026-04-23 15:34 47.86612 11.46856 22235 ft 396 kts 78°
2026-04-23 15:34 47.87023 11.50897 21512 ft 394 kts 78°
2026-04-23 15:34 47.87430 11.54919 20817 ft 393 kts 78°
2026-04-23 15:35 47.87832 11.58906 20329 ft 387 kts 78°
2026-04-23 15:35 47.88227 11.62837 19890 ft 382 kts 78°
2026-04-23 15:35 47.88581 11.66368 19492 ft 379 kts 78°
2026-04-23 15:35 47.88966 11.70221 19041 ft 376 kts 78°
2026-04-23 15:36 47.89350 11.74077 18453 ft 378 kts 78°
2026-04-23 15:36 47.89736 11.77956 17783 ft 380 kts 78°
2026-04-23 15:36 47.90120 11.81846 17129 ft 381 kts 78°
2026-04-23 15:36 47.90507 11.85743 16492 ft 381 kts 78°
2026-04-23 15:37 47.90895 11.89632 15920 ft 380 kts 78°
2026-04-23 15:37 47.91273 11.93477 15408 ft 371 kts 78°
2026-04-23 15:37 47.91641 11.97247 14929 ft 363 kts 78°
2026-04-23 15:37 47.92002 12.00920 14546 ft 355 kts 77°
2026-04-23 15:38 47.92354 12.04509 14162 ft 348 kts 77°
2026-04-23 15:38 47.92700 12.08052 13744 ft 343 kts 78°
2026-04-23 15:38 47.93039 12.11544 13318 ft 339 kts 78°
2026-04-23 15:38 47.93372 12.15003 12896 ft 336 kts 78°
2026-04-23 15:39 47.93703 12.18418 12535 ft 330 kts 78°
2026-04-23 15:39 47.94022 12.21757 12205 ft 322 kts 78°
2026-04-23 15:39 47.94331 12.25029 11871 ft 313 kts 78°
2026-04-23 15:39 47.94619 12.28125 11538 ft 293 kts 78°
2026-04-23 15:40 47.94894 12.31044 11207 ft 277 kts 77°
2026-04-23 15:40 47.95160 12.33835 10873 ft 271 kts 77°
2026-04-23 15:40 47.95426 12.36626 10537 ft 274 kts 78°
2026-04-23 15:40 47.95689 12.39443 10222 ft 275 kts 78°
2026-04-23 15:41 47.95949 12.42273 9881 ft 277 kts 78°
2026-04-23 15:41 47.96217 12.45118 9537 ft 278 kts 78°
2026-04-23 15:41 47.96482 12.47980 9201 ft 280 kts 78°
2026-04-23 15:41 47.96745 12.50855 8809 ft 283 kts 78°
2026-04-23 15:42 47.97014 12.53764 8380 ft 282 kts 79°
2026-04-23 15:42 47.97279 12.56649 7942 ft 281 kts 79°
2026-04-23 15:42 47.97539 12.59496 7452 ft 276 kts 79°
2026-04-23 15:42 47.97797 12.62295 6967 ft 269 kts 79°
2026-04-23 15:43 47.98052 12.65037 6466 ft 264 kts 79°
2026-04-23 15:43 47.98304 12.67733 5946 ft 262 kts 79°
2026-04-23 15:43 47.98547 12.70401 5435 ft 259 kts 79°
2026-04-23 15:43 47.98797 12.73051 4929 ft 258 kts 79°
2026-04-23 15:44 47.99058 12.75681 4418 ft 257 kts 79°
2026-04-23 15:44 47.99332 12.78301 4010 ft 251 kts 79°
2026-04-23 15:44 47.99582 12.80777 3987 ft 232 kts 79°
2026-04-23 15:44 47.99786 12.83108 3975 ft 229 kts 88°
2026-04-23 15:45 47.99382 12.85388 3993 ft 230 kts 118°
2026-04-23 15:45 47.98520 12.87359 3997 ft 225 kts 127°
2026-04-23 15:45 47.97352 12.88886 3992 ft 224 kts 152°
2026-04-23 15:45 47.95933 12.89849 3985 ft 223 kts 162°
2026-04-23 15:46 47.94463 12.90511 3991 ft 220 kts 169°
2026-04-23 15:46 47.93073 12.91424 3983 ft 220 kts 148°
2026-04-23 15:46 47.91761 12.92527 3953 ft 216 kts 156°
2026-04-23 15:46 47.90355 12.93418 3646 ft 224 kts 162°
2026-04-23 15:47 47.88908 12.94274 3275 ft 224 kts 160°
2026-04-23 15:47 47.87538 12.95173 3117 ft 209 kts 159°
2026-04-23 15:47 47.86242 12.96032 2856 ft 198 kts 160°
2026-04-23 15:47 47.85028 12.96790 2571 ft 183 kts 161°
2026-04-23 15:48 47.83877 12.97526 2486 ft 176 kts 160°
2026-04-23 15:48 47.82780 12.98217 2485 ft 169 kts 160°
2026-04-23 15:48 47.81806 12.99149 2492 ft 168 kts 137°
2026-04-23 15:48 47.81000 13.00379 2487 ft 166 kts 135°
2026-04-23 15:49 47.80201 13.01598 2490 ft 164 kts 136°
2026-04-23 15:49 47.79400 13.02804 2490 ft 165 kts 136°
2026-04-23 15:49 47.78573 13.04025 2493 ft 171 kts 135°
2026-04-23 15:49 47.77728 13.05292 2503 ft 174 kts 136°
2026-04-23 15:50 47.76835 13.06359 2563 ft 153 kts 161°
2026-04-23 15:50 47.75872 13.06217 2444 ft 139 kts 218°
2026-04-23 15:50 47.75356 13.05111 2266 ft 131 kts 257°
2026-04-23 15:50 47.75347 13.03776 2092 ft 130 kts 285°
2026-04-23 15:51 47.75832 13.02720 2012 ft 125 kts 320°
2026-04-23 15:51 47.76608 13.02096 1826 ft 129 kts 333°
2026-04-23 15:51 47.77443 13.01573 1691 ft 132 kts 333°
2026-04-23 15:51 47.78288 13.01055 1487 ft 129 kts 332°
2026-04-23 15:52 47.79056 13.00561 1413 ft 102 kts 338°
2026-04-23 15:52 47.79514 13.00279 1417 ft 47 kts 337°
2026-04-23 15:52 47.79802 13.00099 1414 ft 43 kts 336°
2026-04-23 15:52 47.80059 12.99933 1414 ft 38 kts 336°
2026-04-23 15:53 47.80239 12.99819 1414 ft 15 kts 336°
2026-04-23 15:53 47.80278 12.99720 1415 ft 11 kts 262°
2026-04-23 15:53 47.80260 12.99632 1415 ft 9 kts 234°
2026-04-23 15:53 47.80197 12.99590 1415 ft 12 kts 174°
2026-04-23 15:54 47.80107 12.99638 1414 ft 15 kts 155°
2026-04-23 15:54 47.79998 12.99708 1414 ft 19 kts 157°
2026-04-23 15:54 47.79885 12.99779 1414 ft 12 kts 156°
2026-04-23 15:54 47.79835 12.99811 1414 ft 7 kts 156°
2026-04-23 15:55 47.79792 12.99821 1414 ft 5 kts 198°
2026-04-23 15:55 47.79767 12.99782 1414 ft 6 kts 245°
2026-04-23 15:55 47.79737 12.99725 1414 ft 7 kts 170°
2026-04-23 15:55 47.79679 12.99762 1414 ft 11 kts 157°
2026-04-23 15:56 47.79598 12.99813 1414 ft 14 kts 156°
2026-04-23 15:56 47.79533 12.99855 1414 ft 6 kts 159°
2026-04-23 15:56 47.79509 12.99831 1414 ft 4 kts 270°
2026-04-23 15:56 47.79524 12.99814 1414 ft 2 kts 339°